Theta_e
314 312 312 311 311 311 311 312 311 311 311 312 312 312 311 309 309 312 314 315 313 309 307 310 312 313 314 312 313 314 316 318 318 320 320 318 318 320 320 320 321 326 349 352 353
313 313 312 312 310 310 310 310 310 311 311 311 312 311 311 308 312 314 316 313 307 307 315 317 318 315 312 312 312 312 314 316 317 318 318 318 319 319 320 321 321 353 354 353 354
312 312 311 311 310 309 309 310 310 310 311 310 311 310 310 310 315 316 316 309 309 309 315 315 314 314 314 313 311 312 314 315 317 317 318 318 318 318 319 320 320 342 355 353 353
308 308 308 308 310 309 309 310 311 311 312 312 311 309 308 313 322 315 311 311 313 312 313 314 314 315 315 314 311 312 314 314 314 315 316 317 317 318 319 318 319 320 351 352 354
303 305 309 309 309 309 309 310 310 311 311 311 311 309 312 316 318 318 313 315 314 315 315 314 314 313 315 316 316 315 313 314 314 314 315 316 317 318 318 319 319 320 340 352 353
303 306 309 310 309 309 309 309 311 311 310 311 310 309 314 319 316 314 315 315 315 315 315 315 314 314 314 314 316 316 317 316 315 314 313 316 317 318 319 319 319 320 320 336 351
305 310 310 310 309 309 309 309 310 309 310 311 310 313 314 315 316 315 314 315 315 315 315 314 312 310 311 313 313 314 315 316 316 314 314 314 315 317 318 318 319 320 319 320 345
305 310 309 309 308 308 309 309 309 309 311 310 309 313 316 318 316 315 315 316 317 316 316 313 312 309 310 310 311 310 311 316 315 315 315 314 315 315 316 318 319 320 320 320 333
303 307 308 307 308 309 309 309 310 314 311 311 314 314 320 317 314 316 317 318 317 316 315 314 313 311 311 311 309 309 311 313 314 316 316 315 315 316 316 317 319 319 319 319 327
303 309 310 310 310 311 311 312 313 314 316 315 316 318 317 319 317 318 318 318 317 316 315 314 313 313 311 310 311 311 311 311 312 313 315 315 315 316 317 316 317 319 319 319 322
304 310 311 311 311 311 311 316 313 317 317 319 318 320 319 316 317 318 319 319 318 319 318 317 319 318 315 316 316 312 312 312 311 312 313 315 316 316 316 315 316 316 319 318 319
304 310 311 311 312 313 312 317 314 315 316 316 318 318 317 317 318 319 319 320 320 321 321 322 320 319 318 319 320 319 313 313 313 313 313 312 314 316 317 316 316 316 317 318 319
304 309 311 312 313 315 317 319 318 317 316 320 320 318 318 316 318 320 320 320 321 322 322 322 321 319 320 320 320 318 317 317 315 314 314 314 314 316 317 316 317 317 317 319 318
303 309 310 311 314 313 314 315 319 318 322 316 314 313 314 316 320 320 320 320 321 323 322 322 320 321 322 320 319 321 318 318 319 320 318 315 323 320 319 316 316 317 317 318 318
303 308 311 310 312 315 312 316 318 321 322 316 314 314 314 319 321 320 319 320 322 322 321 323 323 324 325 323 321 322 320 320 320 320 322 317 324 322 319 316 317 317 317 319 318
304 309 311 312 313 312 314 318 320 327 320 316 313 313 314 316 321 319 321 320 320 320 319 320 319 320 323 322 322 319 320 319 320 320 325 320 322 322 320 317 316 317 318 319 318
308 308 311 311 313 313 315 318 325 316 313 315 314 314 314 315 315 314 314 320 319 321 318 319 319 321 321 324 322 318 323 325 322 325 324 317 321 321 321 317 317 318 318 319 318
310 312 318 318 312 313 315 319 317 314 314 314 314 315 315 315 315 315 315 319 318 318 319 321 322 323 321 321 323 321 323 324 325 325 322 321 317 319 320 321 318 318 318 318 318
313 316 320 312 313 314 315 314 315 314 314 315 314 315 315 315 315 314 320 320 318 317 319 321 321 319 321 323 321 324 323 321 322 321 325 325 321 319 319 320 320 318 318 318 318
312 316 319 312 313 315 316 315 314 315 315 315 315 315 316 315 315 314 317 320 319 316 317 319 324 321 320 321 323 324 324 328 323 334 334 330 324 320 322 320 320 318 318 319 318
315 321 313 314 315 315 315 316 315 314 315 315 314 315 316 316 314 314 316 320 319 316 315 321 323 323 321 324 325 326 328 324 324 327 333 337 328 331 329 327 327 321 319 320 320
312 319 314 313 314 314 316 316 312 314 315 314 314 314 315 315 315 316 317 318 317 316 320 321 323 326 323 320 322 324 326 326 329 329 328 331 334 330 329 328 329 319 319 319 320
312 318 314 313 316 315 316 315 316 314 314 314 314 314 314 314 315 317 317 317 316 317 318 318 322 327 324 324 324 326 327 325 327 326 331 336 333 325 330 338 336 322 319 319 320
313 316 314 312 313 317 316 317 314 313 313 313 315 314 314 314 315 317 317 317 316 317 317 318 322 326 328 326 324 327 328 327 328 329 327 327 327 327 329 334 334 335 322 320 322
314 313 312 311 311 313 315 316 312 311 313 314 314 314 314 316 317 317 316 318 318 320 319 320 322 323 323 324 327 331 332 329 328 328 330 329 332 331 331 329 328 335 341 345 345
314 311 309 310 315 315 313 313 312 310 313 315 315 315 314 315 316 317 318 319 319 317 318 319 322 322 324 325 326 329 330 329 326 327 328 326 326 325 326 323 322 327 335 339 339
311 310 310 312 313 311 311 313 311 311 314 313 314 314 315 315 314 315 315 318 319 319 320 321 323 325 326 326 327 329 329 326 329 329 328 331 331 328 324 321 318 320 322 331 331
Wind_Speed
21 20 19 17 15 15 15 15 14 15 16 18 20 20 20 21 23 16 8 7 5 12 13 11 11 14 14 6 10 7 10 13 14 15 14 14 15 19 12 14 13 11 7 22 35
21 21 19 18 16 15 14 14 14 15 17 18 20 20 20 21 22 14 6 4 8 8 5 12 13 12 4 6 5 6 6 17 12 13 15 18 20 22 17 20 18 10 19 26 31
21 21 20 19 17 16 15 15 14 15 16 18 20 19 18 17 6 0 10 1 4 5 4 12 17 10 8 7 7 9 15 16 16 18 17 22 27 22 19 22 15 5 19 19 21
23 22 20 20 18 16 15 14 14 15 16 17 18 17 19 5 5 4 3 3 8 5 5 10 7 6 7 8 10 12 16 16 18 20 23 23 21 24 16 20 17 3 16 21 20
26 24 22 21 19 16 14 14 14 15 15 16 15 13 8 3 6 7 2 2 10 5 13 8 8 9 8 9 11 11 11 14 17 19 19 22 23 22 23 22 18 12 8 20 21
29 26 24 22 20 17 15 14 14 15 15 14 11 10 4 4 5 4 4 5 12 11 13 12 7 10 9 12 11 11 16 19 18 17 14 19 20 13 25 17 17 16 3 12 22
33 28 25 22 20 17 14 13 13 14 13 10 6 4 5 10 2 3 4 10 13 12 4 14 16 7 12 12 8 13 15 18 18 16 12 15 18 19 22 14 18 17 11 7 16
36 29 26 22 20 15 12 13 12 11 10 4 3 3 6 10 5 9 11 11 15 15 3 7 10 7 6 9 9 13 9 8 10 12 15 13 16 20 16 13 18 17 13 12 7
38 31 28 21 15 12 12 13 11 6 5 1 2 4 8 4 6 11 7 7 7 14 13 11 3 6 6 6 6 7 9 13 17 16 16 13 18 19 15 16 16 17 14 12 6
36 29 24 19 15 12 12 10 9 7 3 5 9 5 7 4 7 9 11 3 6 7 8 8 4 6 6 3 5 8 7 9 12 10 17 15 19 17 18 19 15 15 18 14 5
35 24 21 20 18 15 15 4 0 0 5 8 10 10 13 14 3 4 6 9 7 10 9 11 2 11 15 7 15 11 9 13 16 15 16 17 19 19 19 17 20 20 16 16 8
33 21 20 20 22 16 11 3 10 8 8 15 16 15 6 6 6 5 2 4 5 10 9 10 15 16 18 17 14 21 12 14 13 15 15 20 20 22 20 17 19 19 17 18 5
33 18 19 22 21 12 6 12 14 15 3 10 7 5 2 8 4 0 3 3 9 11 14 14 19 20 11 11 12 16 11 16 15 16 13 17 20 17 20 19 19 20 18 16 13
38 15 19 22 8 21 9 18 13 7 2 1 10 6 9 5 0 2 5 3 3 8 9 9 7 15 4 7 11 17 17 6 9 18 11 5 7 13 16 17 19 18 17 17 14
38 15 16 21 12 8 18 17 11 2 4 6 14 14 16 3 4 8 8 3 5 9 3 13 18 19 19 14 14 14 2 3 8 10 8 10 3 10 15 15 13 16 15 19 14
35 15 15 9 16 16 20 19 7 2 4 7 17 20 11 10 2 6 5 4 1 7 8 17 21 17 16 9 12 6 3 2 5 3 6 12 9 8 11 18 13 13 13 15 14
37 14 14 14 7 20 20 9 2 5 11 11 21 20 20 18 17 15 15 4 5 8 12 12 10 8 6 5 6 5 5 3 3 3 6 4 10 15 9 15 18 20 14 12 14
36 9 11 15 19 19 18 3 4 15 11 15 19 22 12 18 15 16 15 4 7 5 9 9 9 4 9 8 3 2 3 2 4 3 4 7 11 11 19 23 14 19 13 10 9
32 9 11 15 13 17 4 5 3 7 11 16 18 11 15 18 14 18 6 2 4 3 2 5 6 14 14 8 10 3 6 4 4 8 4 5 8 9 19 19 15 23 15 9 9
23 10 6 26 19 9 4 4 6 6 8 11 12 8 18 16 16 16 8 1 4 4 7 3 8 8 16 11 15 5 5 1 2 4 2 8 8 10 8 17 16 25 23 18 10
8 4 12 25 11 5 4 4 6 11 9 7 12 14 16 14 15 21 12 3 4 5 9 3 3 14 14 2 4 1 2 4 2 4 3 4 4 7 9 11 14 21 26 25 16
12 4 12 21 5 4 5 8 9 11 7 4 3 8 12 14 12 12 18 3 5 4 6 4 4 8 19 18 10 14 3 7 4 4 4 2 6 10 22 19 13 18 25 24 17
7 4 7 15 4 4 7 8 8 11 6 4 7 7 10 9 9 12 12 14 9 8 6 5 3 8 10 9 5 6 3 8 1 2 6 5 6 12 17 23 18 20 21 22 20
3 4 4 4 5 7 9 11 9 8 6 13 7 8 9 11 12 7 13 13 17 2 1 1 2 6 6 13 15 19 13 13 7 4 2 5 14 15 22 27 24 18 12 12 8
2 3 2 5 9 14 16 7 13 11 7 7 4 10 13 9 9 9 16 16 14 2 4 2 4 11 17 21 15 10 22 6 7 9 6 13 18 17 17 21 17 20 24 17 20
3 4 4 7 8 10 6 8 13 16 12 7 6 10 7 7 5 16 14 13 4 7 8 5 5 15 14 14 16 11 25 16 11 13 12 17 17 10 16 13 17 18 19 19 16
10 8 3 7 6 7 7 13 17 15 5 14 11 6 8 8 11 15 13 14 8 7 3 3 4 6 6 18 19 9 18 14 18 17 7 8 4 7 7 13 19 15 18 14 15
Wind_Direction
353 351 347 342 333 330 326 325 327 328 329 331 334 334 332 329 323 325 229 241 233 298 318 319 280 257 259 240 256 277 243 253 252 261 284 297 289 289 284 280 277 290 126 150 147
352 348 346 340 334 329 325 326 326 327 330 331 331 333 333 335 323 277 247 260 304 321 360 339 328 326 257 237 215 214 252 248 262 274 280 285 287 293 309 301 303 94 113 141 146
351 347 344 341 333 327 327 323 322 324 326 328 330 332 332 340 300 308 165 261 323 331 335 290 280 284 279 285 243 233 243 266 271 272 272 269 276 288 291 294 288 163 147 154 154
353 347 344 341 334 327 323 319 319 321 322 325 330 332 334 350 16 145 129 1 356 2 315 273 279 269 262 246 264 274 258 249 254 260 273 273 288 290 295 283 300 346 189 158 162
352 345 338 335 332 325 318 316 315 317 321 324 331 340 0 268 238 181 288 18 341 281 249 286 306 309 289 304 312 273 278 283 263 259 256 269 271 275 283 286 296 298 225 169 166
355 345 337 332 328 324 318 312 312 317 323 326 334 346 285 281 178 129 79 284 297 297 323 325 311 307 290 293 294 301 292 288 291 292 270 262 267 272 275 285 292 297 207 251 167
356 344 338 331 326 322 315 310 315 320 321 334 335 326 276 254 259 244 239 266 272 277 313 321 328 335 320 311 288 316 313 303 290 277 284 290 266 262 269 283 281 289 294 271 209
358 344 339 333 327 324 320 314 321 318 323 350 326 290 253 257 195 264 262 275 331 294 240 317 302 296 257 274 302 297 291 292 285 299 268 271 269 264 271 276 276 280 293 288 240
360 356 351 348 351 345 326 325 319 312 308 303 287 200 273 221 234 251 254 322 332 309 295 262 264 255 290 271 300 251 256 259 278 271 268 263 263 264 271 270 264 272 278 282 282
0 359 360 1 351 341 335 322 308 317 305 234 260 272 262 275 49 335 316 172 248 263 280 254 216 264 268 211 239 261 288 291 286 292 313 298 267 256 261 261 264 269 262 271 269
360 0 0 354 342 332 333 344 317 290 228 228 236 227 261 303 326 230 329 299 280 295 285 284 184 262 270 284 304 291 286 278 286 291 286 285 285 289 246 243 257 258 253 256 236
360 357 351 345 337 325 315 252 1 298 309 286 254 259 284 205 249 114 10 284 272 270 283 295 264 257 248 289 266 297 262 269 282 284 289 287 278 284 276 221 236 247 258 245 203
0 353 346 338 333 330 290 286 356 359 296 293 242 264 233 266 285 248 198 269 278 275 279 284 287 295 209 261 307 273 278 291 283 288 276 285 282 275 285 221 232 236 238 257 224
358 343 341 342 339 331 341 347 3 6 325 22 34 344 324 345 140 200 232 219 280 295 307 280 324 314 352 243 243 282 265 287 319 303 278 248 291 291 270 233 221 230 236 244 225
355 336 326 333 297 305 333 343 329 328 39 13 5 330 327 161 301 228 207 170 258 276 275 265 290 297 279 229 245 254 36 239 238 278 306 268 248 262 261 253 216 219 221 232 212
354 332 317 334 318 321 339 329 313 14 315 11 356 332 326 327 198 284 139 59 87 287 272 284 287 264 251 274 237 118 359 293 239 197 249 225 200 257 231 226 218 213 222 227 202
352 324 301 303 275 339 340 342 5 68 358 352 338 327 310 359 5 347 348 51 40 343 333 322 326 55 13 289 226 89 44 329 330 181 237 177 193 238 269 226 207 217 217 236 184
349 331 313 298 318 329 329 355 9 15 2 344 334 313 6 357 349 342 329 51 50 9 304 351 329 46 348 286 299 105 162 164 276 269 325 298 233 234 240 254 220 217 210 212 186
346 351 296 342 344 342 33 47 16 2 335 340 325 342 340 346 351 340 57 62 12 10 359 324 280 331 294 324 150 151 216 186 229 256 271 253 250 286 225 237 234 211 214 217 214
338 333 309 345 341 346 35 14 22 323 344 347 338 342 329 334 347 341 343 42 286 31 167 281 288 299 316 314 33 141 135 206 187 307 285 270 214 220 215 230 240 204 206 212 209
356 331 0 6 16 22 68 340 349 6 40 349 344 317 337 328 340 327 350 174 237 306 290 267 220 293 296 353 246 294 154 79 256 254 258 304 284 27 344 295 278 243 199 206 201
341 335 356 5 40 356 9 339 344 356 39 359 298 312 309 342 329 327 326 334 145 273 341 106 295 294 297 299 280 199 190 160 177 286 257 260 292 348 344 305 276 191 188 196 203
329 273 350 6 28 6 289 312 324 358 15 304 306 327 349 335 325 317 342 326 22 30 352 355 5 306 336 339 58 48 309 259 34 113 11 348 278 345 325 356 342 191 177 196 205
312 326 340 347 7 342 318 305 2 352 340 334 343 348 339 320 316 303 346 336 345 331 286 126 269 274 312 286 283 291 258 244 247 100 250 221 288 322 346 4 357 6 180 187 184
5 337 38 304 325 310 300 326 345 344 8 348 324 335 330 329 324 352 331 328 329 160 347 257 252 285 297 291 314 356 20 15 259 149 51 337 11 16 356 358 335 37 39 96 113
13 353 340 288 278 309 352 337 351 343 335 316 318 320 341 312 350 315 318 317 318 321 326 293 294 314 311 308 329 23 22 40 91 112 91 60 32 332 2 347 15 37 42 54 83
349 336 248 277 309 343 345 328 338 337 309 319 313 337 326 331 308 285 273 270 239 267 279 260 320 312 282 314 309 30 25 24 38 30 42 70 77 74 318 16 21 2 36 37 67